Location: Fishcreek Rd Observing Site
(41.1865°N, 81.4271°W)
Time: 11:28:24
(UTC-05:00)

Hubble Space Telescope - Pass Details

Date: 19 November 2019
Orbit: 536 x 540 km, 28.5° (Epoch: 06 December)

Event Time Altitude Azimuth Distance (km) Brightness Sun altitude
Rises 19:26:20 0° 226° (SW) 2,668 5.0 -26.7°
Reaches altitude 10° 19:29:48 10° 196° (SSW) 1,780 3.6 -27.3°
Enters shadow 19:30:02 11° 193° (SSW) 1,743 3.5 -27.4°
